| time (UTC) | temp F | wind direction | speed knots | gust knots | rain 1hr in | rain 24hr in | rain mn in | humidity % | barometer mb |
| 20260507220024 | 51 | 73 | 1.7 | 5.2 | 0.00 | 0.00 | 0.00 | 89 | 1012.2 |
| 20260507215021 | 51 | 103 | 2.6 | 5.2 | 0.00 | 0.00 | 0.00 | 89 | 1012.4 |
| 20260507214022 | 52 | 121 | 2.6 | 6.1 | 0.00 | 0.00 | 0.00 | 91 | 1012.3 |
| 20260507213022 | 52 | 169 | 0.0 | 5.2 | 0.00 | 0.00 | 0.00 | 91 | 1012.4 |
| 20260507212021 | 52 | 131 | 1.7 | 5.2 | 0.00 | 0.00 | 0.00 | 91 | 1012.3 |
| 20260507211022 | 52 | 133 | 1.7 | 6.1 | 0.00 | 0.00 | 0.00 | 90 | 1012.4 |
| 20260507210021 | 52 | 115 | 1.7 | 7.8 | 0.00 | 0.00 | 0.00 | 87 | 1012.3 |
| 20260507205021 | 52 | 110 | 2.6 | 6.1 | 0.00 | 0.00 | 0.00 | 86 | 1012.0 |
| 20260507204022 | 52 | 154 | 1.7 | 6.1 | 0.00 | 0.00 | 0.00 | 84 | 1012.2 |
| 20260507203023 | 51 | 110 | 2.6 | 7.0 | 0.00 | 0.00 | 0.00 | 84 | 1012.4 |
| 20260507202028 | 51 | 93 | 3.5 | 7.0 | 0.00 | 0.00 | 0.00 | 86 | 1012.4 |
| 20260507201022 | 51 | 156 | 1.7 | 7.0 | 0.00 | 0.00 | 0.00 | 86 | 1012.6 |
| 20260507200022 | 50 | 90 | 3.5 | 6.1 | 0.00 | 0.00 | 0.00 | 88 | 1012.9 |
| 20260507195022 | 51 | 69 | 3.5 | 7.8 | 0.00 | 0.00 | 0.00 | 86 | 1012.7 |
| 20260507194022 | 53 | 158 | 0.9 | 6.1 | 0.00 | 0.00 | 0.00 | 85 | 1012.9 |
| 20260507193022 | 54 | 62 | 0.9 | 6.1 | 0.00 | 0.00 | 0.00 | 81 | 1013.0 |
| 20260507192022 | 53 | 124 | 4.3 | 7.8 | 0.00 | 0.00 | 0.00 | 82 | 1012.8 |
| 20260507191022 | 53 | 116 | 2.6 | 6.1 | 0.00 | 0.00 | 0.00 | 76 | 1013.2 |
| 20260507190021 | 51 | 89 | 2.6 | 6.1 | 0.00 | 0.00 | 0.00 | 84 | 1012.7 |
| 20260507185021 | 51 | 93 | 2.6 | 5.2 | 0.00 | 0.00 | 0.00 | 86 | 1013.4 |
| 20260507184022 | 51 | 97 | 1.7 | 6.1 | 0.00 | 0.00 | 0.00 | 91 | 1013.4 |
| 20260507183023 | 50 | 89 | 3.5 | 4.3 | 0.00 | 0.00 | 0.00 | 88 | 1013.5 |
| 20260507182021 | 50 | 117 | 2.6 | 5.2 | 0.00 | 0.00 | 0.00 | 89 | 1013.3 |
| 20260507181022 | 50 | 143 | 1.7 | 4.3 | 0.00 | 0.00 | 0.00 | 90 | 1013.3 |
| 20260507180022 | 50 | 125 | 2.6 | 6.1 | 0.00 | 0.00 | 0.00 | 89 | 1013.5 |
| 20260507175021 | 49 | 112 | 1.7 | 7.8 | 0.00 | 0.00 | 0.00 | 88 | 1013.6 |
| 20260507174021 | 49 | 109 | 4.3 | 7.8 | 0.00 | 0.00 | 0.00 | 88 | 1013.4 |
| 20260507173022 | 49 | 102 | 2.6 | 5.2 | 0.00 | 0.00 | 0.00 | 89 | 1013.8 |
| 20260507172023 | 49 | 119 | 2.6 | 4.3 | 0.00 | 0.00 | 0.00 | 88 | 1013.9 |
| 20260507171022 | 50 | 130 | 1.7 | 3.5 | 0.00 | 0.00 | 0.00 | 86 | 1014.0 |
| 20260507170021 | 50 | 107 | 3.5 | 4.3 | 0.00 | 0.00 | 0.00 | 87 | 1014.0 |
| 20260507165024 | 50 | 105 | 1.7 | 3.5 | 0.00 | 0.00 | 0.00 | 88 | 1014.2 |
| 20260507164021 | 51 | 128 | 0.9 | 1.7 | 0.00 | 0.00 | 0.00 | 90 | 1014.2 |
| 20260507163022 | 51 | 180 | 0.0 | 4.3 | 0.00 | 0.00 | 0.00 | 90 | 1014.3 |
| 20260507162022 | 51 | 134 | 0.0 | 3.5 | 0.00 | 0.00 | 0.00 | 91 | 1014.3 |
| 20260507161022 | 51 | 158 | 0.0 | 3.5 | 0.00 | 0.00 | 0.00 | 92 | 1014.5 |
| 20260507160021 | 50 | 138 | 0.9 | 3.5 | 0.00 | 0.00 | 0.00 | 91 | 1014.6 |
| 20260507155024 | 50 | 126 | 0.9 | 3.5 | 0.00 | 0.00 | 0.00 | 94 | 1014.6 |
| 20260507154021 | 50 | 154 | 0.9 | 3.5 | 0.00 | 0.00 | 0.00 | 94 | 1014.9 |
| 20260507153021 | 50 | 54 | 0.0 | 2.6 | 0.00 | 0.00 | 0.00 | 93 | 1015.0 |
| 20260507152022 | 51 | 175 | 0.9 | 1.7 | 0.00 | 0.00 | 0.00 | 94 | 1014.8 |
| 20260507151021 | 52 | 34 | 0.0 | 1.7 | 0.00 | 0.00 | 0.00 | 95 | 1014.6 |
| 20260507150022 | 52 | 18 | 0.9 | 1.7 | 0.00 | 0.00 | 0.00 | 96 | 1014.6 |
| 20260507145021 | 51 | 294 | 1.7 | 1.7 | 0.00 | 0.00 | 0.00 | 97 | 1014.6 |
| 20260507144022 | 51 | 296 | 1.7 | 2.6 | 0.00 | 0.00 | 0.00 | 97 | 1014.8 |
| 20260507143022 | 51 | 275 | 1.7 | 3.5 | 0.00 | 0.00 | 0.00 | 96 | 1015.0 |
| 20260507142024 | 51 | 330 | 2.6 | 3.5 | 0.00 | 0.00 | 0.00 | 95 | 1015.0 |
| 20260507141022 | 51 | 319 | 2.6 | 5.2 | 0.00 | 0.00 | 0.00 | 95 | 1015.0 |
| 20260507140021 | 51 | 302 | 1.7 | 4.3 | 0.00 | 0.00 | 0.00 | 96 | 1015.1 |
| 20260507135022 | 51 | 303 | 1.7 | 3.5 | 0.00 | 0.00 | 0.00 | 95 | 1015.1 |
| 20260507134021 | 52 | 324 | 2.6 | 3.5 | 0.00 | 0.00 | 0.00 | 94 | 1015.1 |
| 20260507133022 | 52 | 259 | 0.9 | 2.6 | 0.00 | 0.00 | 0.00 | 93 | 1015.2 |
| 20260507132021 | 51 | 8 | 0.0 | 2.6 | 0.00 | 0.00 | 0.00 | 93 | 1015.2 |
| 20260507131024 | 52 | 295 | 0.9 | 2.6 | 0.00 | 0.00 | 0.00 | 93 | 1015.1 |
| 20260507130021 | 52 | 287 | 0.0 | 2.6 | 0.00 | 0.00 | 0.00 | 94 | 1015.1 |
| 20260507125024 | 52 | 297 | 1.7 | 3.5 | 0.00 | 0.00 | 0.00 | 92 | 1015.0 |
| 20260507124021 | 52 | 331 | 2.6 | 3.5 | 0.00 | 0.00 | 0.00 | 94 | 1014.8 |
| 20260507123022 | 51 | 304 | 0.9 | 3.5 | 0.00 | 0.00 | 0.00 | 96 | 1014.9 |
| 20260507122021 | 51 | 290 | 1.7 | 3.5 | 0.00 | 0.00 | 0.00 | 97 | 1015.0 |
| 20260507121024 | 51 | 276 | 1.7 | 2.6 | 0.00 | 0.00 | 0.00 | 98 | 1014.8 |
| 20260507120021 | 51 | 290 | 1.7 | 3.5 | 0.00 | 0.00 | 0.00 | 99 | 1014.5 |
| 20260507115022 | 51 | 295 | 0.9 | 2.6 | 0.00 | 0.00 | 0.00 | 99 | 1014.7 |
| 20260507114021 | 51 | 309 | 0.9 | 2.6 | 0.00 | 0.00 | 0.00 | 99 | 1014.5 |
| 20260507113023 | 51 | 272 | 0.9 | 3.5 | 0.00 | 0.00 | 0.00 | 99 | 1014.4 |
| 20260507112022 | 51 | 314 | 0.9 | 3.5 | 0.00 | 0.00 | 0.00 | 99 | 1014.5 |
| 20260507111021 | 50 | 315 | 1.7 | 2.6 | 0.00 | 0.00 | 0.00 | 99 | 1014.2 |
| 20260507110022 | 50 | 180 | 0.0 | 2.6 | 0.00 | 0.00 | 0.00 | 99 | 1014.0 |
| 20260507105021 | 51 | 180 | 0.0 | 1.7 | 0.00 | 0.00 | 0.00 | 99 | 1013.8 |
| 20260507104022 | 51 | 281 | 1.7 | 1.7 | 0.00 | 0.00 | 0.00 | 99 | 1013.9 |
| 20260507103022 | 50 | 305 | 0.0 | 2.6 | 0.00 | 0.00 | 0.00 | 99 | 1014.0 |
| 20260507102022 | 50 | 299 | 0.0 | 1.7 | 0.00 | 0.00 | 0.00 | 99 | 1013.9 |
| 20260507101021 | 50 | 180 | 0.0 | 1.7 | 0.00 | 0.00 | 0.00 | 99 | 1013.9 |
| 20260507100023 | 50 | 180 | 0.0 | 1.7 | 0.00 | 0.00 | 0.00 | 99 | 1014.0 |
| 20260507095022 | 50 | 183 | 0.0 | 4.3 | 0.00 | 0.00 | 0.00 | 99 | 1013.8 |
| 20260507094021 | 50 | 132 | 1.7 | 6.1 | 0.00 | 0.00 | 0.00 | 99 | 1013.3 |
| 20260507093022 | 51 | 142 | 1.7 | 5.2 | 0.00 | 0.00 | 0.00 | 99 | 1013.6 |
| 20260507092021 | 51 | 128 | 1.7 | 6.1 | 0.00 | 0.00 | 0.00 | 99 | 1013.7 |
| 20260507091024 | 51 | 147 | 1.7 | 3.5 | 0.00 | 0.00 | 0.00 | 99 | 1013.9 |
| 20260507090021 | 52 | 138 | 1.7 | 4.3 | 0.00 | 0.00 | 0.00 | 99 | 1013.9 |
| 20260507085022 | 52 | 123 | 2.6 | 5.2 | 0.00 | 0.00 | 0.00 | 99 | 1013.5 |
| 20260507084021 | 52 | 112 | 2.6 | 6.1 | 0.00 | 0.00 | 0.00 | 99 | 1013.4 |
| 20260507083022 | 52 | 123 | 2.6 | 6.1 | 0.00 | 0.00 | 0.00 | 99 | 1013.4 |
| 20260507082021 | 53 | 135 | 3.5 | 7.0 | 0.00 | 0.00 | 0.00 | 99 | 1013.3 |
| 20260507081021 | 53 | 137 | 2.6 | 5.2 | 0.00 | 0.00 | 0.00 | 99 | 1013.1 |
| 20260507080022 | 54 | 128 | 1.7 | 6.1 | 0.00 | 0.00 | 0.00 | 99 | 1013.3 |
| 20260507075021 | 54 | 144 | 5.2 | 8.7 | 0.00 | 0.00 | 0.00 | 99 | 1013.2 |
| 20260507074024 | 55 | 117 | 2.6 | 5.2 | 0.00 | 0.00 | 0.00 | 99 | 1013.3 |
| 20260507073021 | 56 | 135 | 3.5 | 6.1 | 0.00 | 0.00 | 0.00 | 99 | 1013.0 |
| 20260507072024 | 58 | 140 | 0.9 | 2.6 | 0.00 | 0.00 | 0.00 | 99 | 1012.8 |
| 20260507071022 | 60 | 275 | 0.9 | 1.7 | 0.00 | 0.00 | 0.00 | 99 | 1013.0 |
| 20260507070021 | 60 | 180 | 0.0 | 1.7 | 0.00 | 0.00 | 0.00 | 99 | 1012.5 |
| 20260507065022 | 60 | 309 | 1.7 | 3.5 | 0.00 | 0.00 | 0.00 | 99 | 1012.5 |
| 20260507064021 | 61 | 283 | 1.7 | 2.6 | 0.00 | 0.00 | 0.00 | 99 | 1012.6 |
| 20260507063022 | 61 | 322 | 2.6 | 3.5 | 0.00 | 0.00 | 0.00 | 99 | 1013.1 |
| 20260507062022 | 62 | 283 | 1.7 | 2.6 | 0.00 | 0.00 | 0.00 | 99 | 1013.0 |
| 20260507061022 | 62 | 290 | 1.7 | 3.5 | 0.00 | 0.00 | 0.00 | 99 | 1013.1 |
| 20260507060021 | 62 | 281 | 2.6 | 3.5 | 0.00 | 0.00 | 0.00 | 99 | 1013.0 |
| 20260507055021 | 62 | 281 | 2.6 | 3.5 | 0.00 | 0.00 | 0.00 | 99 | 1013.0 |
| 20260507054022 | 62 | 286 | 1.7 | 2.6 | 0.00 | 0.00 | 0.00 | 98 | 1012.9 |
| 20260507053021 | 63 | 200 | 0.0 | 3.5 | 0.00 | 0.00 | 0.00 | 97 | 1012.3 |
| 20260507052022 | 63 | 102 | 2.6 | 4.3 | 0.00 | 0.00 | 0.00 | 97 | 1011.9 |
| 20260507051021 | 63 | 104 | 1.7 | 1.7 | 0.00 | 0.00 | 0.00 | 96 | 1012.2 |
| 20260507050024 | 63 | 183 | 0.9 | 1.7 | 0.00 | 0.00 | 0.00 | 94 | 1012.4 |
| 20260507045021 | 64 | 180 | 0.0 | 2.6 | 0.00 | 0.00 | 0.00 | 93 | 1012.4 |
| 20260507044022 | 63 | 271 | 0.9 | 3.5 | 0.00 | 0.00 | 0.00 | 95 | 1012.7 |
| 20260507043023 | 63 | 87 | 0.9 | 6.1 | 0.00 | 0.00 | 0.00 | 96 | 1013.0 |
| 20260507042022 | 63 | 173 | 0.9 | 4.3 | 0.00 | 0.00 | 0.00 | 96 | 1013.1 |
| 20260507041021 | 63 | 83 | 1.7 | 4.3 | 0.00 | 0.00 | 0.00 | 96 | 1012.8 |
| 20260507040022 | 64 | 95 | 2.6 | 6.1 | 0.00 | 0.00 | 0.00 | 96 | 1012.6 |
| 20260507035022 | 64 | 253 | 2.6 | 8.7 | 0.00 | 0.00 | 0.04 | 95 | 1012.8 |
| 20260507034021 | 64 | 80 | 3.5 | 9.6 | 0.00 | 0.00 | 0.04 | 95 | 1013.1 |
| 20260507033022 | 64 | 315 | 2.6 | 4.3 | 0.00 | 0.00 | 0.04 | 94 | 1013.4 |
| 20260507032021 | 64 | 63 | 2.6 | 9.6 | 0.00 | 0.00 | 0.04 | 94 | 1013.1 |
| 20260507031024 | 64 | 29 | 2.6 | 7.0 | 0.00 | 0.00 | 0.04 | 94 | 1013.1 |
| 20260507030021 | 64 | 85 | 2.6 | 6.1 | 0.00 | 0.00 | 0.04 | 96 | 1012.9 |
| 20260507025024 | 64 | 33 | 2.6 | 5.2 | 0.00 | 0.00 | 0.04 | 96 | 1012.9 |
| 20260507024021 | 64 | 65 | 0.9 | 8.7 | 0.00 | 0.00 | 0.04 | 95 | 1013.3 |
| 20260507023022 | 64 | 35 | 1.7 | 7.8 | 0.00 | 0.00 | 0.04 | 95 | 1013.3 |
| 20260507022021 | 63 | 68 | 4.3 | 7.0 | 0.00 | 0.00 | 0.04 | 96 | 1012.7 |
| 20260507021021 | 63 | 106 | 4.3 | 8.7 | 0.00 | 0.00 | 0.04 | 96 | 1012.4 |
| 20260507020022 | 63 | 84 | 3.5 | 8.7 | 0.00 | 0.00 | 0.04 | 95 | 1011.9 |
| 20260507015021 | 63 | 96 | 5.2 | 8.7 | 0.00 | 0.00 | 0.04 | 95 | 1012.4 |
| 20260507014022 | 63 | 110 | 1.7 | 12.2 | 0.00 | 0.00 | 0.04 | 95 | 1012.6 |
| 20260507013021 | 63 | 90 | 2.6 | 7.8 | 0.00 | 0.00 | 0.04 | 95 | 1012.8 |
| 20260507012021 | 64 | 75 | 4.3 | 7.0 | 0.00 | 0.00 | 0.04 | 94 | 1012.5 |
| 20260507011022 | 64 | 129 | 2.6 | 6.1 | 0.00 | 0.00 | 0.04 | 94 | 1012.9 |
| 20260507010021 | 64 | 72 | 2.6 | 6.1 | 0.00 | 0.00 | 0.04 | 94 | 1013.0 |
| 20260507005021 | 64 | 104 | 3.5 | 8.7 | 0.00 | 0.00 | 0.04 | 94 | 1012.9 |
| 20260507004022 | 64 | 108 | 3.5 | 7.8 | 0.00 | 0.00 | 0.04 | 94 | 1012.8 |
| 20260507003021 | 64 | 98 | 1.7 | 7.8 | 0.00 | 0.00 | 0.04 | 94 | 1012.8 |
| 20260507002021 | 64 | 91 | 4.3 | 9.6 | 0.00 | 0.00 | 0.04 | 93 | 1012.7 |
| 20260507001022 | 64 | 93 | 1.7 | 7.8 | 0.00 | 0.00 | 0.04 | 93 | 1012.8 |
| 20260507000023 | 64 | 113 | 2.6 | 7.8 | 0.00 | 0.00 | 0.04 | 93 | 1012.7 |
| 20260506235021 | 64 | 80 | 2.6 | 8.7 | 0.00 | 0.00 | 0.04 | 92 | 1012.6 |
| 20260506234022 | 64 | 99 | 4.3 | 9.6 | 0.00 | 0.00 | 0.04 | 91 | 1012.2 |
| 20260506233022 | 65 | 66 | 2.6 | 6.1 | 0.00 | 0.00 | 0.04 | 91 | 1012.6 |
| 20260506232022 | 65 | 84 | 0.9 | 8.7 | 0.00 | 0.00 | 0.04 | 91 | 1012.9 |
| 20260506231021 | 65 | 87 | 3.5 | 7.0 | 0.00 | 0.00 | 0.04 | 89 | 1012.7 |
| 20260506230022 | 66 | 94 | 1.7 | 6.1 | 0.00 | 0.00 | 0.04 | 88 | 1012.4 |
| 20260506225023 | 67 | 99 | 2.6 | 11.3 | 0.00 | 0.00 | 0.04 | 87 | 1012.3 |
| 20260506224022 | 67 | 121 | 3.5 | 8.7 | 0.00 | 0.00 | 0.04 | 88 | 1011.9 |
| 20260506223025 | 67 | 87 | 2.6 | 8.7 | 0.00 | 0.00 | 0.04 | 88 | 1012.2 |
| 20260506222022 | 67 | 104 | 3.5 | 9.6 | 0.00 | 0.00 | 0.04 | 87 | 1012.1 |
| 20260506221021 | 65 | 108 | 4.3 | 10.4 | 0.00 | 0.00 | 0.04 | 90 | 1012.1 |